sat.trackr.live / text

‹ back to catalog

STARLINK-5213

NORAD 54093 · 2022-136AU

PAYLOAD ACTIVE UNKNOWN

§ Identity

Operator
Country
US
Launch date
2022-10-20
Launch site
AFETR
Launch vehicle
Mass (kg)
RCS (m²)

Purposes: comms

External: N2YO · Heavens-Above · Gunter

§ Orbital elements

Epoch: 2026-05-24T20:09:08.001216Z

Period
95.44 min
Inclination
53.2156°
Eccentricity
0.0001198
Mean motion
15.08824802 rev/d
Perigee alt
539.0 km
Apogee alt
540.6 km
Semi-major
6,917.9 km
B*
2.1463e-4
RAAN
352.0200°
Arg perigee
97.4214°
Mean anomaly
262.6914°
Rev number
19,848

§ Raw data

STARLINK-52131 54093U 22136AU  26144.83967594  .00003128  00000+0  21463-3 0  99952 54093  53.2156 352.0200 0001198  97.4214 262.6914 15.08824802198481

JSON: /api/v1/satellites/54093 · /tle

For live sub-satellite position, see the globe view (requires WebGL).

§ Visibility from observer

Set your observer location to see the next 7 days of passes ≥ 10°. The values pass through the URL so the page stays shareable.

No JS? Fill the form by hand. The geolocation button needs JavaScript.